Capitol Logistics 943


ELLX
Luxembourg-Findel International Airport
Luxembourg, LU
EHAM
Schiphol International Airport
Amsterdam, NL

Activity Log

Date Flight Route Aircraft Duration
10/28/2019 CPX943 Not Available B738 0h 55m
10/21/2019 CPX943 N0368F180 DIK M624 REMBA/N0385F200 UM624 BUB UY28 HELEN B738 1h 09m

Route Details

Aircraft Information
Primary: Boeing 737-800BCF
Backup: Not Available
Route Data
Distance: 170nm
Sched. Duration: 0h 35m
Avg. Duration: 0h 82m (+47m)
Times Flown: 2
Recm'd Route: Not Available
Planned Altitude: 21,000ft
Origin Wx: ELLX 281920Z 20012KT 170V230 9999 -SHRA FEW022 BKN033 10/08 Q1011 NOSIG
Dest. Wx: EHAM 281855Z 20011KT 9999 FEW022 SCT042 10/08 Q1003 NOSIG
Notes:

Financial History
Total Freight: 82,368lbs
Average Load: 41,184lbs/flt
Fuel Used: 9,377lbs
Avg. Fuel Used: 4,689lbs/flt
Fuel Expense: $7,502
Avg. Fuel Expense: $3,751
Avg. Fuel Cost: $0.80/lbs
Total Gross Income: $164,736
Pilot Pay: $458
Total Expenses: $17,895
Total Revenue: $138,857
Average Revenue: $82,368.00